Location: Recife
(8.0585°S, 34.8848°W)
Time: 10:40:28
(UTC-03:00)

Altair - Pass Details

Date: 19 April 2026
Orbit: 1501 x 1682 km, 47.2° (Epoch: 20 May)

Event Time Altitude Azimuth Distance (km) Brightness Sun altitude
Rises 08:16:00 0° 228° (SW) 4,853 9.7 40.6°
Reaches altitude 10° 08:19:09 10° 231° (SW) 3,885 9.3 41.3°
Maximum altitude 08:28:57 62° 309° (NW) 1,843 8.4 43.6°
Drops below altitude 10° 08:38:56 10° 27° (NNE) 3,932 10.4 45.8°
Sets 08:42:09 0° 31° (NNE) 4,914 10.7 46.5°
